Regional Weather Roundup
Issued by NWS

Home | Current Version | Previous Version | Graphics & Text | Print | Product List | Glossary On
Versions: 1 2 3 4 5 6 7 8 9 10 11 12 13 14 15 16 17 18 19 20 21 22 23 24 25 26 27 28 29 30 31 32 33 34 35 36 37 38 39 40 41 42 43 44 45 46 47 48 49 50
948
ASUS45 KBOU 291907
RWRCO

WEATHER ROUNDUP FOR COLORADO
NATIONAL WEATHER SERVICE DENVER/BOULDER CO
100 PM MDT MON AUG 29 2016

NOTE: "FAIR" INDICATES FEW OR NO CLOUDS BELOW 12000 FEET WITH NO
SIGNIFICANT WEATHER AND/OR OBSTRUCTIONS TO VISIBILITY.

COZ001>005-013-030-031-292000-
...NORTHWEST COLORADO...

CITY           SKY/WX    TMP DP  RH WIND       PRES   REMARKS
CRAIG          FAIR      76  37  24 NE3       30.34F
HAYDEN         FAIR      73  36  25 CALM      30.36F
MEEKER         FAIR      78  41  26 SE7       30.33F
MOUNT WERNER   NOT AVBL
STEAMBOAT SPGS FAIR      71  40  32 CALM      30.38F
WALDEN         FAIR      68  34  28 NE8       30.48F
$$

COZ006>008-011-292000-
...WEST CENTRAL VALLEYS...

CITY           SKY/WX    TMP DP  RH WIND       PRES   REMARKS
GRAND JUNCTION FAIR      79  41  25 S7        30.24F
MONTROSE       FAIR      70  45  40 VRB3      30.33F
EAGLE          PTSUNNY   61  46  59 CALM      30.43F
RIFLE          FAIR      70  46  42 VRB3      30.32F
DELTA          FAIR      74  42  31 CALM      30.30F
NUCLA          FAIR     N/A N/A N/A N5        30.34F
$$

COZ017>023-064>068-292000-
...SOUTHWEST COLORADO...

CITY           SKY/WX    TMP DP  RH WIND       PRES   REMARKS
DURANGO        PTSUNNY   72  38  29 VRB3      30.34F
CORTEZ         FAIR      75  47  36 VRB5      30.30F
PAGOSA SPRINGS PTSUNNY   69  35  29 SW3       30.41S THUNDER
TELLURIDE      CLOUDY    60  40  48 E6        30.53S
WOLF CREEK PAS PTSUNNY   43  41  93 S15G22    30.69S THUNDER
$$

COZ009-010-012-014-032>034-037-058>063-292000-
...CENTRAL COLORADO...

CITY           SKY/WX    TMP DP  RH WIND       PRES   REMARKS
ASPEN          PTSUNNY   60  42  51 CALM      30.44F
BUENA VISTA    FAIR      66  42  40 N7        30.45F
COPPER MTN     PTSUNNY   55  34  44 E16G26    30.70F THUNDER
BERTHOUD PASS  CLOUDY    43  32  65 SE15      30.76S THUNDER
COTTONWOOD PAS FAIR      61  41  48 E6        30.57F THUNDER
GUNNISON       FAIR      63  39  42 CALM      30.46F
KREMMLING      CLOUDY    55  41  58 CALM      30.47F
LEADVILLE      FAIR      53  41  63 VRB3      30.56F
MONARCH PASS   FAIR      45  37  76 NE21      30.77F THUNDER
SALIDA         FAIR      70  44  38 N9        30.49F
SUNLIGHT       LGT RAIN  50  45  81 SW5       30.66S
WILKERSON PASS TSTM      45  41  87 E8        30.69S
$$

COZ069>075-292000-
...SAN LUIS VALLEY/SANGRE DE CRISTO MOUNTAINS...

CITY           SKY/WX    TMP DP  RH WIND       PRES   REMARKS
ALAMOSA        FAIR      68  44  42 NE8       30.41F
LA VETA PASS   TSTM      45  43  93 S8        30.60R
SAGUACHE       FAIR      68  45  42 S7        30.43F
$$

COZ035-036-038>040-292000-
...NORTHERN COLORADO FRONT RANGE...

CITY           SKY/WX    TMP DP  RH WIND       PRES   REMARKS
DENVER INTL AP FAIR      81  43  26 SE7       30.30F
DMNS CITY PARK   N/A     81  43  26 E9        30.28F
AURORA         PTSUNNY   80  44  28 E12       30.31F
FRONT RANGE AP PTSUNNY   81  45  28 SE7G20      N/A
ERIE MUNI ARPT FAIR      82  40  22 NE6       30.28F
BOULDER MUN AP FAIR      81  41  24 N6        30.30F
CENTENNIAL     TSTM      75  45  34 E15G21    30.32F
BROOMFIELD     PTSUNNY   81  39  22 NE5       30.32F
FORT COLLINS   FAIR      82  45  26 SE7       30.26F
LONGMONT       FAIR      85  44  24 CALM      30.30F
$$

COZ041-046-047-076>085-087-088-292000-
...PIKES PEAK/PALMER DIVIDE AND SOUTHERN FOOTHILLS...

CITY           SKY/WX    TMP DP  RH WIND       PRES   REMARKS
COLO. SPRINGS  PTSUNNY   73  52  47 E9        30.35F THUNDER
A. F. ACADEMY  PTSUNNY   67  54  61 N8        30.35F
SCHRIEVER AFB  NOT AVBL
ELLICOTT       NOT AVBL
FALCON         CLOUDY    58  53  85 NE10      30.42R
FORT CARSON    FAIR      74  54  49 E13       30.32F
LIMON          FAIR      72  50  45 E14       30.33S
MONUMENT HILL  FAIR      59  48  67 E17G23    30.43R THUNDER
TRINIDAD       LGT RAIN  68  47  46 SE9       30.36S
$$

COZ042>045-048>051-090-091-292000-
...NORTHEAST COLORADO...

CITY           SKY/WX    TMP DP  RH WIND       PRES   REMARKS
GREELEY ARPT   FAIR      84  46  26 E6        30.27F
AKRON          FAIR      79  51  37 E12       30.28F
BURLINGTON     FAIR      73  57  57 S14       30.28S
WRAY           FAIR      79  59  50 SE10      30.25S
STERLING       FAIR      84  52  32 NE9       30.23S
HOLYOKE        FAIR      84  55  37 SE7       30.25S
FORT MORGAN    FAIR      82  48  30 E9        30.27F
$$

COZ086-089-092>099-292000-
...SOUTHEAST COLORADO...

CITY           SKY/WX    TMP DP  RH WIND       PRES   REMARKS
PUEBLO         FAIR      80  54  40 S12G18    30.27F
LA JUNTA       FAIR      73  58  59 E7        30.27S
LAMAR          PTSUNNY   71  61  70 SE6       30.24F
SPRINGFIELD      N/A     68  55  63 CALM      30.29S
$$




USA.gov is the U.S. government's official web portal to all federal, state and local government web resources and services.